Frenchville, ME

11:04 AM EDT on July 23, 2017 (GMT -0400)
Northern Aroostook Regional

Weather History for KFVE - July, 2014

Change the Weather History Date:

Monday, July 14, 2014

  Actual Average Record
Temperature  
Mean Temperature 69 °F 65 °F  
Max Temperature 77 °F 74 °F 89 °F (2013)
Min Temperature 61 °F 55 °F 45 °F (2011)
Degree Days  
Heating Degree Days 0    
Month to date heating degree days 31  
Since 1 July heating degree days 31  
Cooling Degree Days 4    
Month to date cooling degree days 49  
Year to date cooling degree days 76  
Growing Degree Days 18 (Base 50)    
Moisture  
Dew Point 58 °F    
Average Humidity 75    
Maximum Humidity 100    
Minimum Humidity 38    
Precipitation  
Precipitation 0.03 in 0.14 in 0.79 in (2016)
Month to date precipitation 2.29 2.21  
Year to date precipitation 16.77 15.96  
Sea Level Pressure  
Sea Level Pressure 29.75 in    
Wind  
Wind Speed 11 mph (SW)    
Max Wind Speed 21 mph    
Max Gust Speed 28 mph    
Visibility 7 miles    
Events Fog , Rain    
T = Trace of Precipitation, MM = Missing Value Source: NWS Daily Summary

Daily Weather History Graph

Daily Weather History Graph

Search for Another Location

Airport or City:

Trip Planner

Search our weather history database for the weather conditions in past years. The results will help you decide how hot, cold, wet, or windy it might be!

Date:

Astronomy

Jul. 14, 2014 Rise Set
Actual Time 4:51 AM EDT 8:26 PM EDT
Civil Twilight 4:12 AM EDT 9:04 PM EDT
Nautical Twilight 3:21 AM EDT 9:56 PM EDT
Astronomical Twilight 2:10 AM EDT 11:05 PM EDT
Moon 9:37 PM EDT (7/14) 7:43 AM EDT (7/14)
Length of Visible Light 16h 52m
Length of Day
15h 35m
Waning Gibbous, 93% of the Moon is Illuminated
Jul 14
Waning Gibbous
Jul 18
Last Quarter
Jul 26
New
Aug 3
First Quarter
Aug 10
Full

Hourly Weather History & Observations

Time (EDT) Temp. Dew Point Humidity Pressure Visibility Wind Dir Wind Speed Gust Speed Precip Events Conditions
12:43 AM 64.9 °F 63.0 °F 93% 29.72 in 8.0 mi South 11.5 mph - 0.00 in   Overcast
12:53 AM 64.9 °F 63.0 °F 93% 29.71 in 8.0 mi SSE 13.8 mph 18.4 mph 0.00 in   Overcast
1:15 AM 64.0 °F 63.0 °F 96% 29.72 in 8.0 mi South 11.5 mph - N/A   Overcast
1:46 AM 64.0 °F 63.0 °F 96% 29.71 in 3.0 mi South 11.5 mph - 0.03 in Rain Heavy Rain
1:53 AM 64.4 °F 62.6 °F 94% 29.71 in 4.0 mi South 12.7 mph - N/A Rain Light Rain
2:06 AM 64.0 °F 63.0 °F 96% 29.71 in 4.0 mi South 11.5 mph 18.4 mph 0.00 in Rain Light Rain
2:53 AM 64.0 °F 63.0 °F 96% 29.70 in 6.0 mi South 10.4 mph - 0.00 in   Overcast
3:46 AM 64.0 °F 63.0 °F 96% 29.72 in 2.5 mi South 8.1 mph - N/A   Overcast
3:53 AM 64.0 °F 64.0 °F 100% 29.70 in 2.0 mi South 8.1 mph - N/A   Overcast
4:00 AM 64.0 °F 64.0 °F 100% 29.72 in 1.5 mi South 6.9 mph - N/A   Overcast
4:06 AM 64.0 °F 63.0 °F 96% 29.72 in 0.8 mi South 8.1 mph - N/A   Mist
4:53 AM 63.0 °F 63.0 °F 100% 29.71 in 0.2 mi South 5.8 mph - N/A Fog Fog
5:53 AM 64.0 °F 63.0 °F 96% 29.72 in 0.2 mi South 5.8 mph - N/A Fog Fog
6:53 AM 64.0 °F 64.0 °F 100% 29.73 in 0.8 mi South 8.1 mph - N/A   Mist
7:04 AM 64.0 °F 64.0 °F 100% 29.75 in 1.5 mi South 6.9 mph - N/A   Overcast
7:07 AM 64.0 °F 64.0 °F 100% 29.75 in 2.0 mi SSW 6.9 mph - N/A   Overcast
7:28 AM 64.9 °F 64.9 °F 100% 29.75 in 4.0 mi SSW 6.9 mph - N/A   Overcast
7:53 AM 66.9 °F 64.9 °F 93% 29.73 in 9.0 mi SSW 10.4 mph - N/A   Scattered Clouds
8:16 AM 69.1 °F 64.0 °F 84% 29.74 in 10.0 mi SW 11.5 mph 19.6 mph N/A   Mostly Cloudy
8:26 AM 70.0 °F 64.0 °F 81% 29.75 in 10.0 mi SW 9.2 mph 21.9 mph N/A   Scattered Clouds
8:53 AM 71.1 °F 63.0 °F 75% 29.73 in 10.0 mi WSW 12.7 mph - N/A   Partly Cloudy
9:53 AM 73.0 °F 57.0 °F 57% 29.75 in 10.0 mi WSW 13.8 mph 25.3 mph N/A   Partly Cloudy
10:53 AM 72.0 °F 57.0 °F 59% 29.75 in 10.0 mi West 12.7 mph 23.0 mph N/A   Scattered Clouds
11:53 AM 75.0 °F 55.0 °F 50% 29.76 in 10.0 mi West 16.1 mph 21.9 mph N/A   Partly Cloudy
12:53 PM 73.0 °F 53.1 °F 49% 29.76 in 10.0 mi West 15.0 mph 25.3 mph N/A   Mostly Cloudy
1:53 PM 75.9 °F 53.1 °F 45% 29.75 in 10.0 mi West 19.6 mph 25.3 mph N/A   Partly Cloudy
2:53 PM 75.2 °F 48.2 °F 38% 29.77 in 10.0 mi WSW 16.1 mph 27.6 mph N/A   Partly Cloudy
3:53 PM 75.2 °F 48.2 °F 38% 29.78 in 10.0 mi WSW 12.7 mph 20.7 mph N/A   Clear
4:53 PM 73.9 °F 48.9 °F 41% 29.77 in 10.0 mi West 10.4 mph - N/A   Clear
5:53 PM 73.0 °F 51.1 °F 46% 29.77 in 10.0 mi WSW 6.9 mph - N/A   Clear
6:53 PM 72.0 °F 52.0 °F 49% 29.78 in 10.0 mi WSW 6.9 mph - N/A   Clear
7:53 PM 68.0 °F 51.1 °F 55% 29.78 in 10.0 mi WSW 10.4 mph - N/A   Clear
8:53 PM 66.9 °F 46.9 °F 49% 29.79 in 10.0 mi WSW 9.2 mph - N/A   Clear
9:53 PM 64.0 °F 46.0 °F 52% 29.80 in 10.0 mi WSW 6.9 mph - N/A   Clear
10:53 PM 62.1 °F 44.1 °F 52% 29.81 in 10.0 mi WSW 5.8 mph - N/A   Clear
11:53 PM 62.1 °F 44.1 °F 52% 29.81 in 10.0 mi West 10.4 mph - N/A   Clear